Flag for U.S.A. Weather past 2 weeks in Allentown, Pennsylvania, U.S.A.

59 °F

Passing clouds.

Feels Like: 56 °F
Forecast: 42 / 63 °F
Wind: 15 mph from North

Location: Lehigh Valley International Airport

Current Time: Oct 10, 2015 at 12:30:22 AM

Latest Report: Oct 9, 2015 at 11:51 PM

Visibility: 10 mi

Pressure: 29.96 "Hg

Humidity: 69%

Dew point: 49 °F

Location of AllentownLocation

Historic Weather in Allentown — Graph


Allentown temperature yesterday

Maximum temperature yesterday: 74 °F (at 1:51 PM)
Minimum temperature yesterday: 53 °F (at 12:51 AM)
Average temperature yesterday: 63 °F

Past Weeks' High & Low Weather Summary

High81 °F (Sep 28, 4:51 PM)94% (Sep 29, 10:59 PM)30.46 "Hg (Sep 29, 10:59 PM)
Low44 °F (Oct 6, 1:51 AM)41% (Oct 8, 4:51 PM)29.63 "Hg (Sep 30, 4:51 AM)
Average61 °F75%30.14 "Hg
* Reported Sep 24 10:51 PM — Oct 9 10:51 PM, Allentown, Weather by CustomWeather, © 2015

Note: Actual official high and low records may vary slightly from our data, if they occured in-between our weather recording intervals... More about our weather records


Allentown weather history for previous 24 hours

Time TempWeatherWind HumidityBarometerVisibility
10:51 PM
Fri, Oct 9
62 °FClear.12 mph70%29.92 "Hg10 mi
9:51 PM64 °FPassing clouds.9 mph78%29.90 "Hg10 mi
8:58 PM63 °FFog.3 mph94%29.88 "Hg2 mi
7:51 PM63 °FPassing clouds.6 mph93%29.84 "Hg9 mi
6:51 PM62 °FSunny.6 mph90%29.81 "Hg8 mi
5:51 PM65 °FScattered clouds.No wind91%29.80 "Hg10 mi
5:03 PM64 °FThunderstorms. Fog.5 mph94%29.81 "Hg4 mi
4:51 PM65 °FStrong thunderstorms. Fog.7 mph91%29.81 "Hg2 mi
3:51 PM72 °FMostly cloudy.6 mph78%29.78 "Hg8 mi
2:51 PM74 °FOvercast.12 mph67%29.81 "Hg10 mi
1:51 PM74 °FScattered clouds.8 mph69%29.83 "Hg10 mi
12:51 PM71 °FScattered clouds.5 mph78%29.86 "Hg8 mi
11:51 AM67 °FLight rain. More clouds than sun.8 mph81%29.89 "Hg4 mi
11:03 AM66 °FLight rain. Mostly cloudy.5 mph83%29.92 "Hg5 mi
10:51 AM66 °FOvercast.5 mph78%29.93 "Hg8 mi
9:51 AM65 °FOvercast.8 mph78%29.94 "Hg9 mi
8:51 AM63 °FOvercast.7 mph81%29.96 "Hg9 mi
7:51 AM56 °FFog.3 mph93%29.96 "Hg5 mi
6:51 AM58 °FOvercast.3 mph87%29.97 "Hg7 mi
5:51 AM56 °FMostly cloudy.5 mph90%29.98 "Hg7 mi
4:51 AM56 °FMostly cloudy.3 mph90%30.00 "Hg7 mi
3:51 AM55 °FMostly cloudy.No wind90%30.01 "Hg7 mi
2:51 AM53 °FFog.No wind93%30.03 "Hg6 mi
1:51 AM53 °FClear.3 mph89%30.05 "Hg9 mi
12:51 AM53 °FClear.3 mph93%30.06 "Hg7 mi
Weather by CustomWeather, © 2015

See weather overviewHow to use our weather pages